Miscellaneous Local Product
Issued by NWS North Platte, NE

Home | Current Version | Previous Version | Graphics & Text | Print | Product List | Glossary On
Versions: 1 2 3 4 5 6 7 8 9 10 11 12 13 14 15 16 17 18 19 20 21 22 23 24 25 26 27 28 29 30 31 32 33 34 35 36 37 38 39 40 41 42 43 44 45 46 47 48 49 50
075
AXUS43 KLBF 242310
MISLBF


WESTERN AND NORTH CENTRAL NEBRASKA HOURLY WEATHER ROUNDUP
NATIONAL WEATHER SERVICE NORTH PLATTE NE
600 PM CDT TUE MAY 24 2016

NOTE: "FAIR" INDICATES FEW OR NO CLOUDS BELOW 12,000 FEET WITH NO
SIGNIFICANT WEATHER AND/OR OBSTRUCTIONS TO VISIBILITY.

NOTE: STATIONS NOT REPORTING VARIABLES SUCH AS SKY/WEATHER OR
PRESSURE ARE PROVIDED BY RAWS AND APRS NETWORKS AND ARE NOT UNDER
NATIONAL WEATHER SERVICE QUALITY CONTROL.

...OBSERVATIONS IN AND NEAR THE EASTERN PANHANDLE OF NEBRASKA...

CITY           SKY/WX    TMP DP  RH WIND       PRES   REMARKS
PINE RIDGE     SUNNY     79  44  28 S16G22    29.77F
CHADRON        MOSUNNY   79  46  31 SE17G24   29.75F
ALLIANCE       CLOUDY    73  48  41 S22G29    29.81F
SIDNEY         CLOUDY    72  52  49 S16       29.85F
CRESCENT LAKE    N/A     74  47  38 SE9G18      N/A
BIG SPRINGS      N/A     79  56  45 SE20        N/A
$$

...OBSERVATIONS IN NORTHERN NEBRASKA AND FAR SOUTHERN SOUTH DAKOTA...

CITY           SKY/WX    TMP DP  RH WIND       PRES   REMARKS
WINNER         FAIR      82  53  36 SE10      29.81F
VALENTINE      SUNNY     81  45  28 SE12      29.81F
THEDFORD       SUNNY     82  48  31 S16       29.85F
AINSWORTH      SUNNY     80  47  31 SE12G18   29.83F
O`NEILL        SUNNY     82  47  28 E7        29.84F
ORD            SUNNY     81  52  36 SE10      29.83F
BROKEN BOW     SUNNY     80  53  39 SE12      29.84F
BUTTE            N/A     82  49  31 E10         N/A
CHAMBERS         N/A     84  56  38 E3          N/A
EWING            N/A     83  61  46 SE3         N/A
$$

...OBSERVATIONS IN SOUTHWEST NEBRASKA AND FAR NORTHEAST COLORADO...

CITY           SKY/WX    TMP DP  RH WIND       PRES   REMARKS
WRAY           MOCLDY    79  55  44 SE14G23   29.81F
HOLYOKE        FAIR      77  55  47 SE13      29.82F
IMPERIAL       MOSUNNY   75  59  57 S16       29.82F
OGALLALA       MOSUNNY   74  55  49 SE13G20   29.83F
NORTH PLATTE   MOSUNNY   75  58  55 SE13      29.83F
MCCOOK         PTSUNNY   75  60  59 SE15G23   29.82F
LEXINGTON      PTSUNNY   75  59  57 SE13      29.85S
PAXTON           N/A     78  59  51 SE15        N/A
STAPLETON        N/A     81  54  38 CALM        N/A
GOTHENBURG       N/A     77  54  44 SE9         N/A
CALLAWAY         N/A     80  53  39 S13         N/A
$$

...OBSERVATIONS IN CENTRAL LINCOLN COUNTY AREA...

CITY           SKY/WX    TMP DP  RH WIND       PRES   REMARKS
N.P. AIRPORT   MOSUNNY   75  58  55 SE13      29.83F
N.P. DOWNTOWN    N/A     79  60  51 SE3G13      N/A
N.P. SOUTHEAST   N/A     78  60  53 SE7G17      N/A
N.P. HILLCREST   N/A     77  58  52 S12         N/A
$$

...SOME OBSERVATIONS FROM AROUND THE REGION...

CITY           SKY/WX    TMP DP  RH WIND       PRES   REMARKS
DENVER         CLOUDY    69  52  54 NE18      29.83R
LARAMIE        CLOUDY    61  38  42 SE24G32   29.89S
CHEYENNE       CLOUDY    63  43  48 SE21G28   29.89F
SCOTTSBLUFF    CLOUDY    73  47  39 SE18      29.79F
RAPID CITY     CLOUDY    66  45  46 E7        29.83F
BISMARCK       MOSUNNY   77  40  26 SE7       29.86F
PIERRE         SUNNY     80  47  31 E8        29.80F
SIOUX FALLS    MOSUNNY   83  49  30 CALM      29.85F
OMAHA          MOSUNNY   82  59  45 S7        29.86F
GRAND ISLAND   MOSUNNY   79  60  52 SE8       29.86F
KANSAS CITY    MOSUNNY   79  67  66 S8        29.90R
WICHITA        MOSUNNY   83  71  67 SE20G25   29.83F
OKLAHOMA CITY  PTSUNNY   82  72  71 S17G26    29.87R
DALLAS         PTSUNNY   85  71  63 S17G24    29.89S HX  90
AMARILLO       CLOUDY    85  61  44 S20G32    29.82F
DODGE CITY     TSTM      72  67  84 SE24G45   29.73F
HAYS           CLOUDY    79  63  57 E14G21    29.78F
GOODLAND       MOSUNNY   77  60  55 SE13G22   29.81F
$$




USA.gov is the U.S. government's official web portal to all federal, state and local government web resources and services.